Philip, SD

9:47 PM MST on November 19, 2017 (GMT -0700)
Philip

Weather History for KPHP - April, 2013

Change the Weather History Date:

Saturday, April 13, 2013

  Actual Average Record
Temperature  
Mean Temperature 31 °F 45 °F  
Max Temperature 38 °F 59 °F 90 °F (2003)
Min Temperature 23 °F 31 °F 12 °F (1948)
Degree Days  
Heating Degree Days 34 20  
Month to date heating degree days 367 284  
Since 1 July heating degree days 6348 6587  
Cooling Degree Days 0 0  
Month to date cooling degree days 0 0  
Year to date cooling degree days 0 0  
Moisture  
Dew Point 30 °F    
Average Humidity 88    
Maximum Humidity 100    
Minimum Humidity 76    
Precipitation  
Precipitation 0.03 in 0.06 in 0.73 in (1986)
Month to date precipitation 0.99 0.54  
Year to date precipitation 2.21 2.59  
Sea Level Pressure  
Sea Level Pressure 29.68 in    
Wind  
Wind Speed 14 mph (ESE)    
Max Wind Speed 26 mph    
Max Gust Speed 35 mph    
Visibility 10 miles    
Events      
T = Trace of Precipitation, MM = Missing Value Source: NWS Daily Summary

Daily Weather History Graph

Daily Weather History Graph

Search for Another Location

Airport or City:

Trip Planner

Search our weather history database for the weather conditions in past years. The results will help you decide how hot, cold, wet, or windy it might be!

Date:

Astronomy

Apr. 13, 2013 Rise Set
Actual Time 6:06 AM MDT 7:28 PM MDT
Civil Twilight 5:36 AM MDT 7:58 PM MDT
Nautical Twilight 5:00 AM MDT 8:34 PM MDT
Astronomical Twilight 4:21 AM MDT 9:13 PM MDT
Moon 7:53 AM MDT (4/13) 11:00 PM MDT (4/13)
Length of Visible Light 14h 22m
Length of Day
13h 22m
Waxing Crescent, 11% of the Moon is Illuminated
Apr 13
Waxing Crescent
Apr 18
First Quarter
Apr 25
Full
May 2
Last Quarter
May 9
New

Hourly Weather History & Observations

Time (MDT) Temp. Windchill Dew Point Humidity Pressure Visibility Wind Dir Wind Speed Gust Speed Precip Events Conditions
12:55 AM 30.0 °F 22.4 °F 28.9 °F 96% 29.98 in 10.0 mi West 8.1 mph - N/A   Clear
1:55 AM 30.0 °F 23.2 °F 28.0 °F 92% 29.97 in 10.0 mi West 6.9 mph - N/A   Clear
2:55 AM 28.0 °F 20.8 °F 26.1 °F 92% 29.95 in 10.0 mi WSW 6.9 mph - N/A   Clear
3:55 AM 26.1 °F 20.5 °F 24.1 °F 92% 29.93 in 10.0 mi WNW 4.6 mph - N/A   Clear
4:55 AM 25.0 °F - 21.9 °F 88% 29.90 in 10.0 mi Calm Calm - N/A   Clear
5:55 AM 23.0 °F 18.4 °F 21.9 °F 96% 29.89 in 10.0 mi ESE 3.5 mph - N/A   Clear
6:55 AM 24.1 °F 16.0 °F 21.9 °F 91% 29.86 in 10.0 mi East 6.9 mph - N/A   Clear
7:55 AM 28.0 °F 20.8 °F 26.1 °F 92% 29.82 in 10.0 mi East 6.9 mph - N/A   Scattered Clouds
8:55 AM 30.0 °F 21.7 °F 27.0 °F 88% 29.79 in 10.0 mi East 9.2 mph - N/A   Clear
9:55 AM 34.0 °F 25.5 °F 30.0 °F 85% 29.75 in 10.0 mi East 11.5 mph - N/A   Clear
10:55 AM 35.1 °F 26.4 °F 30.9 °F 85% 29.72 in 10.0 mi ESE 12.7 mph - N/A   Clear
11:55 AM 36.0 °F 26.0 °F 30.9 °F 82% 29.69 in 10.0 mi East 17.3 mph - N/A   Overcast
12:55 PM 37.0 °F 27.4 °F 32.0 °F 82% 29.65 in 10.0 mi East 17.3 mph - N/A   Overcast
1:17 PM 37.4 °F 26.6 °F 30.2 °F 75% 29.59 in 10.0 mi ESE 21.9 mph - N/A   Overcast
1:55 PM 37.0 °F 26.7 °F 30.9 °F 79% 29.62 in 10.0 mi ESE 19.6 mph 27.6 mph N/A   Overcast
2:55 PM 37.9 °F 26.6 °F 32.0 °F 79% 29.60 in 10.0 mi ESE 25.3 mph 31.1 mph N/A   Mostly Cloudy
3:05 PM 37.4 °F 26.1 °F 32.0 °F 81% 29.54 in 10.0 mi ESE 24.2 mph - N/A   Scattered Clouds
3:55 PM 37.9 °F 28.2 °F 32.0 °F 79% 29.57 in 10.0 mi ESE 18.4 mph 29.9 mph N/A   Clear
4:55 PM 37.0 °F 25.9 °F 32.0 °F 82% 29.56 in 10.0 mi ESE 23.0 mph 34.5 mph N/A   Overcast
5:12 PM 37.4 °F 26.9 °F 32.0 °F 81% 29.51 in 10.0 mi ESE 20.7 mph - N/A   Overcast
5:55 PM 36.0 °F 25.6 °F 32.0 °F 86% 29.55 in 10.0 mi East 18.4 mph 26.5 mph N/A   Overcast
6:55 PM 35.1 °F 24.1 °F 32.0 °F 89% 29.54 in 10.0 mi East 19.6 mph - N/A   Overcast
7:15 PM 35.6 °F 25.2 °F 32.0 °F 87% 29.49 in 10.0 mi East 18.4 mph - N/A   Overcast
7:55 PM 34.0 °F 23.4 °F 32.0 °F 92% 29.53 in 10.0 mi East 17.3 mph - 0.00 in   Overcast
8:55 PM 34.0 °F 23.0 °F 33.1 °F 96% 29.52 in 9.0 mi East 18.4 mph - N/A   Overcast
9:55 PM 35.1 °F 24.5 °F 33.1 °F 92% 29.49 in 8.0 mi East 18.4 mph - N/A   Overcast
10:55 PM 35.1 °F 24.1 °F 33.1 °F 92% 29.48 in 8.0 mi East 19.6 mph - N/A   Overcast
11:55 PM 35.1 °F 24.5 °F 33.1 °F 92% 29.46 in 7.0 mi East 18.4 mph - 0.00 in   Overcast